Location: Newark
(51.2000°N, 58.6167°E)
Time: 07:58:07
(UTC+00:00)

Envisat - Pass Details

Date: 03 October 2020
Orbit: 764 x 766 km, 98.1° (Epoch: 23 October)

Event Time Altitude Azimuth Distance (km) Brightness Sun altitude
Rises 14:49:27 0° 220° (SW) 3,224 6.7 -12.0°
Reaches altitude 10° 14:53:04 10° 247° (WSW) 2,304 6.4 -12.5°
Maximum altitude 14:55:27 13° 275° (W) 2,088 6.6 -12.9°
Drops below altitude 10° 14:57:50 10° 304° (WNW) 2,312 6.6 -13.3°
Sets 15:01:30 0° 331° (NNW) 3,245 6.9 -13.8°
